Home > Weather > Podgorica > Past weeks

Flag for Montenegro Past Weather in Podgorica, Montenegro — Yesterday and Last 2 Weeks

Now
77 °F

Passing clouds.


Feels Like: 79 °F
Forecast: 72 / 92 °F
Wind: 6 mph from North

Location: Podgorica Titograd

Current Time: Jul 26, 2016 at 2:52:05 AM

Latest Report: Jul 26, 2016 at 2:30 AM


Visibility: N/A

Pressure: 29.89 "Hg

Humidity: 57%

Dew Point: 61 °F

Location of PodgoricaLocation

Past Weather in Podgorica — Graph

°F

Podgorica Temperature Yesterday

Maximum temperature yesterday: 93 °F (at 3:00 PM)
Minimum temperature yesterday: 72 °F (at 8:30 AM)
Average temperature yesterday: 82 °F

High & Low Weather Summary for the Past Weeks

 TemperatureHumidityPressure
High97 °F (Jul 11, 4:00 PM)100% (Jul 17, 4:30 AM)30.01 "Hg (Jul 17, 4:30 AM)
Low61 °F (Jul 16, 4:30 AM)24% (Jul 19, 2:30 PM)29.65 "Hg (Jul 15, 6:00 PM)
Average81 °F52%29.90 "Hg
* Reported Jul 11 2:00 AM — Jul 26 2:00 AM, Podgorica, Weather by CustomWeather, © 2016

Note: Actual official high and low records may vary slightly from our data, if they occured in-between our weather recording intervals... More about our weather records

Advertising

Podgorica Weather History for the Previous 24 Hours

Scroll right to see more
 ConditionsComfort  
Time TempWeatherWind HumidityBarometerVisibility
2:00 AM
Tue, Jul 26
77 °FPassing clouds.2 mph57%29.86 "HgN/A
1:30 AM75 °FPassing clouds.3 mph69%29.86 "HgN/A
1:00 AM79 °FPassing clouds.7 mph61%29.86 "HgN/A
12:30 AM81 °FPassing clouds.9 mph51%29.86 "HgN/A
12:00 AM81 °FPassing clouds.8 mph51%29.89 "HgN/A
11:30 PM
Mon, Jul 25
81 °FPassing clouds.8 mph51%29.86 "HgN/A
11:00 PM79 °FPassing clouds.3 mph61%29.86 "HgN/A
10:30 PM81 °FPassing clouds.5 mph54%29.86 "HgN/A
10:00 PM82 °FPassing clouds.3 mph51%29.86 "HgN/A
9:30 PM82 °FPassing clouds.5 mph51%29.86 "HgN/A
9:00 PM82 °FScattered clouds.5 mph48%29.86 "HgN/A
8:30 PM82 °FScattered clouds.3 mph48%29.86 "HgN/A
8:00 PM84 °FScattered clouds.5 mph51%29.86 "HgN/A
7:30 PM84 °FScattered clouds.3 mph55%29.86 "HgN/A
7:00 PM86 °FScattered clouds.7 mph49%29.83 "HgN/A
6:30 PM88 °FScattered clouds.8 mph46%29.83 "HgN/A
6:00 PM90 °FScattered clouds.5 mph38%29.83 "HgN/A
5:30 PM91 °FPassing clouds.6 mph38%29.83 "HgN/A
5:00 PM91 °FPassing clouds.3 mph38%29.83 "HgN/A
4:30 PM91 °FPassing clouds.3 mph36%29.83 "HgN/A
4:00 PM91 °FPassing clouds.3 mph38%29.83 "HgN/A
3:30 PM91 °FPassing clouds.5 mph34%29.83 "HgN/A
3:00 PM93 °FPassing clouds.2 mph30%29.83 "HgN/A
2:30 PM90 °FPassing clouds.5 mph31%29.86 "HgN/A
2:00 PM90 °FPassing clouds.7 mph33%29.86 "HgN/A
1:30 PM90 °FPassing clouds.8 mph33%29.86 "HgN/A
1:00 PM86 °FPassing clouds.6 mph46%29.89 "HgN/A
12:30 PM84 °FScattered clouds.3 mph55%29.89 "HgN/A
12:00 PM79 °FScattered clouds.3 mph65%29.92 "HgN/A
11:30 AM79 °FBroken clouds.3 mph61%29.92 "HgN/A
11:00 AM77 °FBroken clouds.2 mph69%29.92 "HgN/A
10:30 AM77 °FScattered clouds.2 mph69%29.92 "HgN/A
10:00 AM75 °FScattered clouds.8 mph78%29.92 "HgN/A
9:30 AM73 °FBroken clouds.3 mph89%29.92 "HgN/A
9:00 AM73 °FBroken clouds.5 mph83%29.92 "HgN/A
8:30 AM72 °FPartly sunny.12 mph88%29.92 "HgN/A
8:00 AM75 °FLight rain. Partly sunny.7 mph78%29.92 "HgN/A
7:30 AM77 °FThundershowers. Partly sunny.2 mph65%29.92 "HgN/A
7:00 AM75 °FPartly sunny.9 mph69%29.89 "HgN/A
6:30 AM79 °FBroken clouds.9 mph61%29.89 "HgN/A
6:00 AM77 °FThunderstorms. Partly cloudy.5 mph65%29.92 "HgN/A
5:30 AM77 °FThunderstorms. Partly cloudy.3 mph69%29.92 "HgN/A
5:00 AM77 °FThunderstorms. Partly cloudy.12 mph74%29.89 "HgN/A
4:30 AM79 °FThunderstorms. Partly cloudy.6 mph79%29.92 "Hg4 mi
4:00 AM79 °FThunderstorms. Partly cloudy.10 mph84%29.89 "HgN/A
3:30 AM79 °FThundershowers. Passing clouds.9 mph84%29.89 "HgN/A
3:00 AM79 °FPassing clouds.3 mph79%29.89 "HgN/A
2:30 AM81 °FPassing clouds.No wind74%29.89 "HgN/A
2:00 AM81 °FPassing clouds.5 mph70%29.89 "HgN/A
Weather by CustomWeather, © 2016

See weather overviewHow to use our weather pages